EW7556 Weather Reports


time (UTC)temp
C
wind
direction
speed
KPH
gust
KPH
rain 1hr
cm
rain 24hr
cm
rain mn
cm
humidity
%
barometer
mb
20260503230111 25 245 1.6 8.0 0.00 0.00 0.00 34 1011.6
20260503224544 25 238 3.2 9.7 0.00 0.00 0.00 40 1011.8
20260503223101 25 229 0.0 6.4 0.00 0.00 0.00 39 1012.1
20260503221553 25 333 0.0 4.8 0.00 0.00 0.00 44 1012.3
20260503220056 24 285 0.0 4.8 0.00 0.00 0.00 42 1012.5
20260503214552 23 300 1.6 6.4 0.00 0.00 0.00 43 1012.8
20260503213043 23 309 4.8 9.7 0.00 0.00 0.00 44 1013.0
20260503211543 23 347 3.2 9.7 0.00 0.00 0.00 42 1013.1
20260503210046 23 14 3.2 11.3 0.00 0.00 0.00 41 1013.2
20260503204531 23 287 4.8 9.7 0.00 0.00 0.00 42 1013.2
20260503203032 24 16 3.2 9.7 0.00 0.00 0.00 42 1013.2
20260503201538 24 259 4.8 9.7 0.00 0.00 0.00 45 1013.2
20260503200040 23 234 1.6 6.4 0.00 0.00 0.00 45 1013.4
20260503194524 23 236 3.2 8.0 0.00 0.00 0.00 47 1013.6
20260503193024 23 255 3.2 9.7 0.00 0.00 0.00 44 1013.9
20260503191527 23 262 0.0 4.8 0.00 0.00 0.00 44 1014.0
20260503190013 23 233 0.0 4.8 0.00 0.00 0.00 46 1014.1
20260503184512 22 252 0.0 6.4 0.00 0.00 0.00 50 1014.3
20260503183011 22 229 0.0 9.7 0.00 0.00 0.00 50 1014.5
20260503181534 22 229 3.2 8.0 0.00 0.00 0.00 52 1014.6
20260503180003 22 227 0.0 4.8 0.00 0.00 0.00 50 1014.8
20260503174504 21 239 0.0 4.8 0.00 0.00 0.00 49 1015.0
20260503173007 21 232 1.6 8.0 0.00 0.00 0.00 50 1015.1
20260503171521 21 241 3.2 9.7 0.00 0.00 0.00 53 1015.1
20260503170120 20 243 1.6 8.0 0.00 0.00 0.00 52 1015.1
20260503160113 20 193 0.0 6.4 0.00 0.00 0.00 55 1015.4
20260503150110 17 200 1.6 3.2 0.00 0.00 0.00 66 1015.8
20260503140104 12 188 3.2 6.4 0.00 0.00 0.00 77 1015.5
20260503120133 8 191 0.0 3.2 0.00 0.00 0.00 84 1015.3
20260503110118 11 280 0.0 0.0 0.00 0.00 0.00 75 1015.3
20260503100110 15 65 0.0 6.4 0.00 0.00 0.00 60 1014.9
20260503090109 12 195 0.0 1.6 0.00 0.00 0.00 71 1014.9
20260503081605 12 185 3.2 6.4 0.00 0.00 0.00 73 1014.9
20260503080107 11 182 1.6 4.8 0.00 0.00 0.00 75 1014.8
20260503071604 10 203 0.0 3.2 0.00 0.00 0.00 84 1014.8
20260503060114 11 198 0.0 3.2 0.00 0.00 0.00 84 1014.7
20260503054600 11 197 0.0 1.6 0.00 0.00 0.00 82 1014.8
20260503053103 12 198 0.0 1.6 0.00 0.00 0.00 78 1014.8
20260503051502 13 197 0.0 1.6 0.00 0.00 0.00 73 1014.8
20260503050110 15 200 0.0 3.2 0.00 0.00 0.00 66 1014.8
20260503044612 15 211 3.2 4.8 0.00 0.00 0.00 67 1014.7
20260503043100 15 182 0.0 3.2 0.00 0.00 0.00 65 1014.5
20260503041614 15 188 1.6 3.2 0.00 0.00 0.00 65 1014.4
20260503040104 15 325 0.0 0.0 0.00 0.00 0.00 71 1014.3
20260503034550 16 325 0.0 0.0 0.00 0.00 0.00 69 1014.1
20260503033104 17 325 0.0 0.0 0.00 0.00 0.00 64 1013.9
20260503031605 18 325 0.0 0.0 0.00 0.00 0.00 60 1013.8
20260503030109 20 325 0.0 0.0 0.00 0.00 0.00 54 1013.8
20260503024603 22 325 0.0 0.0 0.00 0.00 0.00 47 1013.8
20260503023106 22 325 0.0 0.0 0.00 0.00 0.00 47 1013.8
20260503021502 22 325 0.0 1.6 0.00 0.00 0.00 46 1013.9
20260503020111 23 325 0.0 3.2 0.00 0.00 0.00 46 1014.0
20260503014554 23 271 0.0 1.6 0.00 0.00 0.00 42 1014.1
20260503013059 25 257 0.0 1.6 0.00 0.00 0.00 37 1014.2
20260503011610 25 198 0.0 1.6 0.00 0.00 0.00 33 1014.3
20260503010112 25 249 0.0 1.6 0.00 0.00 0.00 37 1014.4
20260503004603 24 331 0.0 6.4 0.00 0.00 0.00 35 1014.4
20260503003105 24 304 0.0 1.6 0.00 0.00 0.00 38 1014.4
20260503001501 23 297 0.0 8.0 0.00 0.00 0.00 41 1014.6
20260503000108 23 242 1.6 8.0 0.00 0.00 0.00 38 1014.6
20260502234555 23 324 0.0 6.4 0.00 0.00 0.00 43 1014.8
20260502233053 23 316 1.6 6.4 0.00 0.00 0.00 38 1015.0
20260502231558 23 237 0.0 6.4 0.00 0.00 0.00 39 1015.1